Vertical_Velocity
3 3 2 -0 -1 -1 -1 -1 -0 0 0 -1 -1 -1 -1 1 0 0 0 0 0 -0 -0 0 1 2 2 2 1 0 0 0 -0 0 0 1 0 0 -0 0 0 0 -0 -1 -0 0 1 1 -0 -1 -1 -1 -1 -1 -1 -0 -1 -2 -2 -2 -1 -1 -1 -1 -2 -2 -2 -3 -3
2 2 1 0 0 1 1 2 2 2 1 0 0 0 1 2 1 1 1 1 1 0 1 1 2 2 2 2 2 1 1 1 0 0 0 0 0 0 0 0 1 1 0 -1 -1 -0 0 1 -0 -1 -1 -1 -1 -0 -0 -0 -1 -1 -2 -2 -2 -1 -1 -2 -2 -2 -2 -3 -3
2 2 1 0 1 1 1 0 0 1 1 1 1 2 2 2 2 2 2 2 2 2 1 0 1 2 2 2 3 2 2 1 0 0 0 0 1 1 1 1 1 1 0 -0 -1 -1 -0 0 -0 -1 -1 -1 -1 -0 -0 -0 -0 -1 -1 -2 -2 -2 -2 -2 -2 -2 -3 -3 -2
2 1 -0 -1 -1 -2 -2 -2 -0 1 1 1 1 2 2 2 2 2 3 3 3 1 -0 -1 0 1 2 3 3 2 2 1 0 0 0 1 1 1 1 1 1 1 0 -0 -1 -1 -1 -0 -1 -1 -1 -1 -1 -1 -1 -1 -1 -1 -1 -2 -2 -3 -3 -3 -3 -3 -3 -2 -2
2 -0 -1 -2 -2 -1 -1 0 2 2 1 1 1 2 1 1 1 2 2 2 0 -1 -1 -1 0 1 2 2 3 2 2 1 0 0 1 1 2 1 1 1 1 0 0 -0 -1 -1 -1 -1 -1 -1 -1 -0 -1 -2 -2 -2 -2 -2 -2 -2 -2 -3 -3 -3 -3 -3 -3 -2 -2
1 0 -0 -1 -0 1 2 2 3 2 1 1 1 0 -0 -0 -0 0 0 -0 -0 -0 -0 -0 -0 0 1 2 2 2 1 -0 -0 0 1 2 2 1 1 1 1 0 -0 -1 -1 -1 -1 -1 -1 -1 -1 -1 -2 -2 -2 -2 -2 -2 -3 -3 -3 -2 -2 -2 -3 -3 -3 -2 -2
0 -0 -0 -1 -0 0 1 1 2 2 1 1 0 -0 -1 -1 -0 -0 0 0 1 1 -0 -1 -2 -1 -0 1 1 0 -0 -0 -0 0 1 2 2 1 1 1 1 0 -0 -1 -1 -1 -0 0 -0 -1 -2 -3 -3 -2 -2 -1 -2 -2 -3 -3 -3 -3 -2 -2 -2 -2 -2 -2 -2
1 -0 -1 -1 -1 -1 -0 0 1 1 0 -0 0 -0 -0 0 1 1 1 2 1 -0 -1 -2 -2 -2 -1 0 0 0 0 0 0 1 2 2 2 1 1 1 0 0 -0 -1 -1 -0 0 0 -1 -2 -3 -3 -2 -2 -1 -1 -2 -2 -3 -3 -3 -3 -3 -2 -2 -3 -2 -2 -1
1 0 -0 -0 -0 -0 0 1 0 -0 -1 -1 0 1 1 1 1 1 1 0 -0 -1 -1 -2 -2 -1 0 1 1 2 2 1 1 1 2 2 1 1 1 1 0 -0 -0 -0 0 1 0 -2 -3 -4 -3 -2 -1 -1 -1 -1 -1 -2 -2 -2 -3 -3 -3 -3 -3 -3 -3 -2 -1
-1 -1 -1 -0 -0 -0 0 1 1 0 0 1 1 1 2 2 2 1 1 1 1 1 -0 -1 -0 0 1 2 2 2 2 2 2 2 2 2 2 1 1 1 1 0 0 0 1 0 -1 -4 -3 -2 -2 -1 -0 -0 -1 -1 -1 -2 -2 -2 -2 -3 -3 -3 -3 -3 -3 -2 -1
-1 -1 -1 -1 -1 -0 1 1 1 1 1 1 1 1 2 2 2 2 2 3 3 1 0 0 1 1 1 2 2 2 1 1 1 2 2 2 2 2 2 2 2 1 1 1 1 0 -2 -3 -2 -1 -1 0 0 0 -1 -2 -2 -2 -2 -2 -2 -2 -2 -3 -3 -3 -2 -2 -2
1 1 0 0 0 1 1 2 1 1 2 1 1 1 2 2 2 2 3 3 2 1 1 2 2 1 1 0 0 -0 -1 -1 0 1 2 2 2 3 2 2 2 2 2 2 1 0 -0 -1 -1 -0 0 1 1 0 -1 -2 -2 -2 -2 -2 -2 -2 -2 -2 -2 -2 -1 -1 -1
2 2 2 2 2 2 2 2 2 2 2 1 1 1 2 2 2 2 2 2 1 0 -0 -0 -0 -0 -1 -1 -1 -2 -1 -1 0 1 2 2 2 2 2 1 2 2 2 2 1 1 1 0 0 0 1 2 1 0 -1 -2 -2 -2 -2 -2 -2 -2 -2 -2 -1 -1 -1 -1 -1
2 2 2 2 2 2 3 3 3 3 3 2 2 2 2 2 2 1 1 -0 -1 -2 -3 -3 -2 -2 -2 -1 -1 -1 -0 0 0 1 1 1 1 1 1 1 2 3 3 3 2 2 1 0 0 0 1 2 1 0 -1 -2 -2 -2 -2 -2 -2 -2 -2 -2 -2 -1 -2 -2 -2
2 2 2 2 2 3 3 3 3 3 3 3 2 2 3 3 2 1 1 -0 -2 -2 -2 -2 -1 -0 1 1 1 1 1 1 0 0 -0 -1 -0 0 1 2 3 4 4 4 3 2 1 1 0 0 1 2 1 -1 -2 -3 -3 -3 -3 -3 -2 -2 -2 -2 -2 -2 -2 -2 -2
1 2 2 2 2 2 2 2 2 3 3 3 3 3 3 3 2 2 1 -0 -1 -1 -0 0 1 2 2 2 2 2 2 1 1 0 0 0 1 2 3 5 5 5 4 4 3 3 2 1 0 0 1 1 -0 -2 -3 -3 -3 -3 -3 -3 -2 -2 -2 -1 -1 -2 -2 -2 -2
0 0 1 1 1 1 1 1 1 2 2 2 3 3 3 3 2 1 1 -0 -0 0 1 1 1 1 2 1 2 2 3 3 4 4 5 6 6 7 7 7 6 4 3 3 3 3 2 2 2 2 2 1 -1 -2 -3 -4 -4 -4 -3 -3 -2 -2 -2 -2 -2 -2 -2 -2 -2
-1 -1 -0 -0 -0 -0 -0 -0 -0 0 0 1 1 2 2 2 1 1 0 -0 0 1 1 2 2 2 3 3 3 4 6 8 9 10 11 11 10 9 7 6 4 3 2 1 2 1 1 1 2 3 2 1 -1 -3 -4 -4 -4 -4 -3 -3 -3 -2 -2 -2 -2 -2 -2 -2 -2
-1 -1 -0 -0 -0 -0 -0 0 0 0 -0 -0 0 1 1 1 1 1 1 2 2 3 3 3 4 5 6 7 8 9 10 12 13 13 12 10 8 6 5 4 2 1 0 0 0 -0 -0 1 2 2 2 -0 -2 -3 -4 -4 -4 -3 -3 -3 -3 -2 -2 -2 -2 -2 -2 -2 -2
1 1 2 2 2 3 2 2 2 1 1 1 1 0 0 0 1 2 3 4 4 5 6 5 6 7 8 9 10 10 10 10 9 8 6 5 4 3 2 1 0 -0 -0 -0 -1 -1 -1 0 2 2 1 -1 -2 -3 -3 -3 -3 -2 -2 -2 -2 -2 -2 -1 -1 -1 -1 -1 -1
3 3 4 4 4 4 3 3 2 2 2 2 2 1 1 1 2 2 3 3 3 4 4 4 4 5 5 5 5 5 4 4 3 2 2 1 1 1 0 0 0 0 0 -0 -1 -1 -1 1 1 1 -1 -2 -3 -3 -2 -2 -1 -1 -1 -1 -1 -1 -1 -1 -1 -1 -1 -1 -1
2 3 3 3 3 2 2 1 1 2 2 2 2 2 2 1 1 0 0 0 1 1 1 1 1 1 1 0 -0 -1 -1 -1 -1 -1 -0 0 0 0 1 1 1 1 0 -0 -1 -1 -0 1 0 -1 -2 -3 -3 -3 -2 -2 -1 -2 -2 -2 -2 -2 -2 -2 -2 -2 -2 -2 -2
1 1 1 1 0 -0 -1 -1 -0 -0 -0 -0 -0 -0 -0 -0 -1 -1 -0 -0 -0 0 0 1 1 1 -0 -1 -2 -2 -2 -2 -1 -1 0 1 1 2 2 2 2 2 1 -0 -0 -0 0 0 -1 -2 -3 -4 -4 -3 -3 -3 -3 -3 -3 -4 -4 -4 -4 -4 -4 -4 -3 -3 -3
-0 -0 -0 -0 -1 -1 -1 -1 -1 -1 -1 -1 -1 -0 0 0 0 1 1 1 1 2 2 2 2 2 2 1 0 -0 0 0 1 1 2 2 2 2 2 2 2 1 1 0 0 0 -0 -1 -2 -3 -4 -4 -4 -4 -3 -3 -4 -4 -4 -4 -5 -5 -4 -4 -4 -3 -3 -3 -2
0 0 0 0 -0 -1 -1 -0 -0 0 0 1 2 2 2 2 2 2 2 2 2 3 3 3 3 4 3 3 2 2 3 3 2 2 2 2 2 2 2 2 1 1 0 0 0 0 -0 -1 -3 -3 -4 -4 -4 -3 -3 -3 -4 -4 -4 -5 -5 -5 -4 -4 -3 -2 -1 -1 -0
1 1 1 0 0 0 0 0 1 2 2 3 3 3 3 2 2 2 2 2 2 2 2 2 3 3 3 3 3 3 3 3 3 2 2 2 1 1 1 1 1 1 0 0 0 -0 -1 -2 -3 -4 -4 -4 -3 -3 -3 -3 -3 -4 -4 -4 -5 -5 -4 -4 -3 -1 -0 0 0
1 1 1 0 0 0 0 1 2 2 2 2 2 2 2 2 2 2 2 2 1 1 1 1 2 2 2 2 2 2 2 2 2 2 2 1 1 1 1 1 1 1 1 0 -0 -1 -2 -3 -4 -4 -3 -3 -3 -3 -3 -3 -3 -4 -4 -4 -4 -4 -4 -4 -3 -2 -1 -0 0
1 2 2 1 1 1 1 1 2 1 1 2 2 2 2 2 2 2 1 1 1 1 1 1 2 2 2 2 2 2 2 2 2 2 1 1 1 1 1 1 1 1 1 0 -1 -2 -3 -3 -4 -4 -4 -3 -2 -1 -2 -2 -3 -3 -3 -3 -3 -3 -3 -2 -2 -2 -1 -1 0
1 2 2 2 1 1 1 2 1 1 1 2 3 3 2 2 2 2 2 1 1 1 1 1 2 2 3 2 2 2 2 2 2 1 1 1 1 1 1 1 0 0 -0 -1 -1 -2 -3 -3 -4 -4 -4 -3 -1 -1 -1 -2 -2 -2 -3 -3 -3 -2 -2 -2 -2 -2 -2 -2 -1
1 1 2 2 2 1 1 1 1 2 2 3 3 2 2 2 2 2 1 1 0 1 1 2 2 2 2 2 2 2 2 1 1 1 0 0 1 1 1 0 0 -0 -1 -1 -2 -3 -3 -4 -4 -4 -3 -2 -3 -2 -2 -2 -2 -2 -3 -3 -3 -2 -2 -2 -2 -2 -2 -2 -2
1 1 1 2 1 1 1 2 2 2 2 2 2 2 1 1 1 1 1 1 2 3 4 4 4 3 2 2 2 2 1 1 0 0 0 1 1 1 1 0 0 -0 -1 -1 -2 -3 -4 -4 -4 -2 -2 -2 -3 -4 -4 -3 -3 -3 -3 -4 -3 -2 -2 -2 -2 -2 -2 -1 -2
1 1 1 1 1 1 1 1 1 1 2 2 2 2 1 1 2 2 2 3 3 4 4 4 3 3 3 2 2 1 1 1 0 1 1 1 1 1 1 0 -0 -1 -1 -2 -4 -5 -4 -3 -2 -1 -0 -1 -2 -3 -4 -4 -4 -4 -4 -4 -3 -2 -1 -1 -1 -1 -1 -0 -0
0 1 1 1 1 1 1 1 1 1 1 2 2 2 2 2 3 3 3 3 3 2 2 2 2 2 1 1 1 1 1 1 1 1 2 2 1 1 -0 -1 -1 -2 -3 -5 -6 -5 -4 -2 -1 0 0 0 -1 -2 -3 -3 -3 -4 -4 -4 -3 -2 -2 -1 -1 -1 -1 0 0
1 1 1 1 1 1 1 1 1 1 1 2 2 2 2 3 2 2 2 2 2 2 2 3 3 2 2 1 1 1 1 1 1 2 2 1 1 0 -0 -1 -1 -3 -4 -5 -4 -3 -1 0 1 2 2 1 -0 -1 -1 -2 -3 -3 -4 -4 -3 -2 -2 -1 -1 -1 -1 -0 0
0 0 1 1 1 1 0 0 0 1 1 1 1 2 2 2 2 1 1 2 2 3 3 4 4 4 3 3 2 2 1 1 1 1 1 0 0 -0 -0 -1 -3 -4 -4 -3 -2 -0 1 2 2 2 1 1 -0 -0 -1 -1 -2 -2 -3 -3 -3 -3 -2 -1 -1 -0 -0 -0 0
-0 -0 0 0 1 0 0 0 0 0 0 0 1 1 2 2 2 2 2 3 3 3 3 3 3 2 1 1 0 0 0 0 1 0 0 -0 -0 -1 -2 -4 -5 -4 -3 -1 0 1 1 1 1 1 1 0 -0 -0 -0 -0 -1 -2 -2 -2 -3 -3 -2 -0 -0 -0 -0 0 0
-1 -1 -0 -0 0 -0 -0 -0 -0 -0 -0 -0 0 1 1 2 2 2 2 2 2 2 2 1 1 0 -1 -1 -1 -0 0 1 1 0 -0 -0 -0 -2 -4 -6 -5 -3 -1 1 1 1 1 1 1 1 0 -0 -1 -0 -0 -0 -1 -2 -2 -3 -3 -2 -1 0 0 -0 -0 -0 0
-1 -1 -1 -1 -0 -0 -0 -1 -1 -1 -1 -0 0 1 2 2 2 2 1 1 0 1 1 1 0 0 -0 0 1 1 1 1 1 0 -0 -1 -2 -3 -5 -5 -3 -1 1 1 1 0 0 1 1 1 0 -0 -0 -0 -0 -0 -1 -2 -3 -3 -3 -2 -1 0 0 -0 -1 -1 -1
-1 -1 -1 -1 -1 -1 -1 -1 -1 -1 -1 -0 0 0 1 2 2 1 1 0 1 1 1 2 1 1 2 2 2 2 2 1 0 0 -0 -1 -3 -4 -4 -3 -1 0 1 1 1 1 1 1 1 1 1 0 -0 -0 -0 -1 -2 -3 -3 -3 -3 -2 -1 0 -0 -1 -1 -1 -1
-1 -1 -1 -0 -0 -1 -1 -1 -1 -1 -1 -0 -0 -0 0 1 1 1 1 1 2 2 2 3 3 3 2 2 2 1 1 0 0 -0 -0 -1 -2 -2 -1 -1 -0 1 1 2 2 1 1 1 1 1 1 1 0 0 0 -0 -2 -3 -4 -3 -2 -2 -1 -1 -0 -1 -1 -1 -0
-0 -0 -0 -0 -0 -0 -1 -1 -1 -1 -1 -1 -0 -0 1 1 1 1 1 1 1 2 2 3 3 3 2 2 1 1 1 1 0 0 0 0 0 -0 -0 0 1 1 2 3 3 2 1 1 1 1 2 2 1 1 1 -0 -2 -4 -4 -3 -1 -1 -1 -2 -1 -1 -1 -2 -0
Height
1490 1491 1491 1491 1492 1493 1494 1495 1496 1497 1498 1500 1501 1502 1503 1505 1506 1508 1509 1511 1512 1514 1515 1516 1518 1519 1520 1521 1521 1523 1524 1525 1526 1526 1527 1528 1529 1530 1531 1532 1532 1533 1533 1533 1534 1534 1534 1534 1534 1534 1534 1534 1534 1533 1533 1533 1532 1532 1532 1531 1531 1531 1530 1530 1529 1528 1528 1527 1526
1489 1490 1490 1490 1491 1492 1493 1494 1495 1496 1497 1498 1500 1501 1502 1504 1505 1506 1508 1510 1511 1512 1514 1515 1516 1517 1518 1519 1520 1521 1522 1523 1524 1525 1526 1527 1528 1529 1530 1530 1531 1531 1532 1532 1532 1533 1533 1533 1533 1533 1533 1533 1532 1532 1532 1532 1531 1531 1531 1531 1530 1530 1529 1529 1528 1527 1526 1526 1525
1487 1488 1489 1489 1490 1491 1492 1493 1494 1495 1496 1497 1498 1500 1501 1502 1504 1506 1507 1508 1510 1511 1512 1514 1515 1516 1517 1518 1519 1520 1521 1522 1523 1523 1525 1526 1526 1527 1528 1529 1529 1530 1530 1531 1531 1531 1531 1532 1532 1532 1532 1531 1531 1531 1531 1531 1531 1530 1530 1529 1529 1529 1528 1527 1527 1526 1526 1525 1524
1486 1486 1487 1487 1488 1489 1490 1491 1492 1494 1495 1496 1497 1498 1500 1501 1503 1504 1506 1507 1509 1510 1511 1512 1513 1515 1516 1517 1518 1519 1520 1520 1521 1522 1523 1524 1525 1526 1526 1527 1528 1528 1529 1529 1530 1530 1530 1531 1531 1531 1531 1530 1530 1530 1530 1530 1529 1529 1529 1528 1528 1527 1527 1526 1526 1525 1524 1524 1523
1485 1485 1485 1486 1487 1488 1489 1490 1491 1493 1494 1495 1496 1497 1499 1500 1501 1503 1504 1506 1507 1508 1510 1511 1512 1513 1515 1516 1516 1517 1518 1519 1520 1521 1522 1523 1524 1525 1525 1526 1526 1527 1527 1528 1528 1529 1529 1529 1529 1530 1529 1529 1529 1529 1529 1528 1528 1528 1527 1527 1526 1526 1526 1525 1524 1524 1523 1523 1522
1483 1483 1484 1485 1486 1487 1489 1490 1491 1492 1493 1494 1495 1496 1498 1499 1500 1501 1503 1504 1506 1507 1509 1510 1511 1512 1513 1514 1515 1516 1516 1517 1518 1519 1520 1521 1522 1523 1524 1524 1525 1526 1526 1526 1527 1527 1528 1528 1528 1528 1528 1528 1528 1528 1527 1527 1527 1526 1526 1526 1525 1525 1524 1524 1523 1523 1522 1521 1521
1481 1482 1483 1484 1485 1486 1487 1489 1490 1491 1492 1493 1494 1496 1496 1498 1499 1500 1501 1503 1505 1506 1507 1509 1510 1511 1511 1512 1513 1514 1515 1516 1516 1517 1519 1520 1521 1521 1522 1523 1524 1524 1525 1525 1526 1526 1526 1526 1527 1527 1527 1527 1527 1526 1526 1526 1525 1525 1525 1524 1524 1523 1523 1523 1522 1521 1521 1521 1520
1481 1481 1482 1483 1484 1486 1486 1488 1489 1490 1491 1492 1493 1494 1496 1496 1498 1499 1501 1502 1503 1505 1506 1507 1508 1509 1510 1511 1511 1512 1513 1514 1515 1516 1517 1518 1519 1520 1521 1521 1522 1523 1523 1524 1524 1524 1525 1525 1526 1526 1526 1526 1526 1525 1525 1524 1524 1524 1523 1523 1522 1522 1522 1521 1521 1520 1520 1519 1519
1480 1480 1481 1482 1484 1485 1486 1487 1488 1489 1490 1491 1492 1493 1495 1496 1497 1499 1500 1501 1502 1503 1505 1506 1506 1507 1508 1509 1510 1510 1511 1512 1513 1514 1516 1517 1518 1519 1519 1520 1521 1521 1522 1522 1522 1523 1523 1524 1525 1525 1525 1525 1524 1524 1523 1523 1523 1522 1522 1522 1521 1521 1520 1520 1519 1519 1518 1518 1517
1479 1480 1481 1482 1483 1484 1485 1486 1487 1488 1489 1490 1491 1492 1494 1495 1496 1497 1498 1500 1501 1502 1503 1504 1505 1506 1506 1507 1508 1508 1509 1511 1512 1513 1514 1515 1516 1517 1518 1518 1519 1520 1520 1521 1521 1521 1522 1523 1523 1523 1523 1523 1523 1522 1522 1522 1522 1521 1521 1520 1520 1519 1519 1518 1518 1517 1517 1516 1516
1478 1479 1480 1481 1482 1483 1485 1486 1486 1487 1488 1489 1490 1491 1493 1494 1495 1496 1497 1498 1500 1501 1501 1502 1503 1504 1505 1506 1506 1507 1508 1509 1511 1512 1513 1514 1515 1516 1516 1517 1518 1518 1519 1519 1519 1520 1521 1521 1521 1522 1521 1521 1521 1521 1521 1521 1521 1520 1520 1519 1519 1518 1518 1517 1516 1516 1516 1515 1515
1478 1479 1480 1481 1481 1482 1483 1484 1485 1486 1487 1488 1489 1490 1491 1493 1494 1495 1496 1497 1498 1499 1500 1501 1502 1503 1504 1505 1505 1506 1507 1508 1509 1511 1511 1513 1513 1514 1515 1516 1516 1517 1517 1517 1518 1519 1519 1520 1520 1520 1520 1520 1519 1519 1519 1519 1519 1519 1518 1518 1517 1517 1516 1516 1516 1515 1514 1514 1514
1477 1478 1479 1480 1480 1481 1482 1483 1484 1485 1486 1487 1488 1489 1491 1491 1493 1494 1495 1496 1497 1498 1499 1500 1501 1502 1503 1503 1504 1505 1506 1506 1508 1509 1510 1511 1512 1513 1513 1514 1515 1515 1516 1516 1516 1517 1518 1518 1518 1518 1518 1518 1518 1518 1518 1518 1518 1517 1517 1516 1516 1516 1515 1515 1514 1514 1513 1513 1512
1476 1477 1478 1478 1479 1480 1481 1482 1483 1484 1485 1486 1487 1488 1489 1491 1492 1493 1494 1495 1496 1497 1498 1499 1500 1501 1501 1502 1502 1503 1504 1505 1506 1507 1509 1510 1511 1511 1512 1512 1513 1514 1514 1515 1515 1516 1516 1516 1516 1516 1516 1516 1516 1516 1516 1516 1516 1516 1516 1515 1515 1514 1514 1513 1513 1512 1512 1511 1511
1475 1476 1477 1477 1478 1479 1480 1481 1482 1483 1484 1485 1486 1487 1489 1490 1491 1492 1493 1494 1495 1496 1496 1497 1498 1499 1499 1500 1501 1502 1503 1504 1505 1506 1507 1508 1509 1510 1510 1511 1511 1512 1512 1513 1514 1514 1515 1515 1515 1515 1515 1515 1515 1515 1515 1515 1515 1515 1514 1514 1514 1513 1512 1512 1511 1511 1511 1511 1510
1474 1475 1476 1476 1477 1478 1479 1480 1481 1482 1483 1484 1485 1486 1487 1488 1489 1490 1491 1492 1493 1494 1495 1495 1496 1497 1497 1498 1499 1500 1501 1502 1503 1504 1505 1506 1507 1507 1508 1509 1510 1511 1511 1512 1512 1513 1513 1513 1513 1513 1513 1513 1514 1514 1514 1514 1513 1513 1513 1512 1512 1511 1511 1511 1510 1510 1510 1509 1509
1473 1474 1475 1476 1477 1478 1479 1480 1481 1481 1482 1483 1484 1485 1486 1487 1488 1489 1489 1490 1491 1492 1492 1493 1494 1495 1496 1496 1497 1498 1499 1500 1501 1501 1502 1503 1504 1505 1506 1507 1508 1509 1510 1511 1511 1512 1512 1511 1511 1511 1512 1512 1512 1512 1512 1512 1512 1512 1511 1511 1511 1510 1510 1509 1509 1509 1508 1508 1507
1472 1473 1474 1476 1476 1477 1478 1479 1480 1481 1481 1482 1483 1484 1485 1485 1486 1487 1487 1488 1489 1490 1491 1491 1492 1492 1493 1494 1495 1495 1496 1497 1497 1499 1500 1501 1502 1504 1505 1506 1507 1508 1509 1510 1510 1511 1510 1510 1510 1511 1511 1511 1511 1511 1511 1511 1511 1510 1510 1510 1509 1509 1508 1508 1508 1507 1507 1507 1506
1471 1472 1474 1475 1476 1476 1477 1478 1478 1479 1480 1481 1481 1482 1483 1483 1484 1485 1485 1486 1487 1487 1488 1489 1489 1490 1490 1491 1491 1492 1493 1495 1496 1498 1500 1501 1502 1504 1505 1506 1506 1507 1508 1509 1509 1509 1509 1509 1509 1510 1510 1510 1510 1510 1510 1509 1509 1509 1508 1508 1508 1507 1507 1507 1506 1506 1506 1506 1505
1470 1471 1472 1473 1474 1475 1476 1476 1476 1477 1478 1479 1479 1480 1481 1481 1482 1482 1483 1484 1485 1485 1486 1486 1487 1487 1488 1489 1490 1491 1493 1496 1497 1499 1501 1501 1502 1503 1504 1505 1506 1506 1507 1507 1508 1508 1508 1508 1508 1509 1509 1509 1509 1509 1508 1508 1508 1507 1507 1507 1506 1506 1506 1506 1506 1505 1505 1504 1504
1469 1470 1471 1471 1472 1473 1474 1474 1475 1475 1476 1476 1477 1478 1479 1480 1481 1481 1483 1484 1485 1486 1486 1487 1487 1488 1489 1490 1492 1494 1496 1497 1499 1500 1501 1501 1502 1503 1503 1504 1505 1505 1506 1506 1506 1506 1507 1507 1507 1507 1507 1507 1507 1507 1507 1507 1507 1506 1506 1506 1506 1505 1505 1505 1504 1504 1503 1503 1502
1467 1468 1469 1470 1471 1471 1472 1472 1473 1474 1474 1475 1476 1477 1478 1479 1480 1482 1483 1484 1485 1486 1487 1487 1488 1489 1491 1492 1493 1495 1496 1497 1498 1499 1500 1501 1501 1502 1502 1503 1503 1504 1504 1505 1505 1505 1506 1506 1506 1506 1506 1506 1506 1506 1506 1506 1505 1505 1505 1505 1505 1504 1504 1503 1503 1502 1502 1501 1501
1466 1467 1468 1469 1470 1471 1471 1471 1472 1473 1474 1475 1476 1476 1478 1479 1480 1481 1482 1483 1484 1485 1486 1486 1488 1489 1490 1492 1493 1494 1495 1496 1497 1498 1499 1499 1500 1501 1501 1502 1502 1503 1503 1503 1504 1504 1504 1504 1505 1505 1505 1505 1505 1505 1504 1504 1504 1504 1504 1503 1503 1503 1502 1502 1501 1501 1500 1499 1499
1465 1466 1467 1468 1469 1469 1470 1471 1471 1472 1473 1474 1475 1476 1477 1478 1479 1480 1481 1482 1482 1483 1484 1485 1486 1487 1489 1490 1491 1492 1493 1494 1495 1496 1497 1498 1498 1499 1500 1501 1501 1501 1502 1502 1502 1503 1503 1503 1503 1503 1503 1503 1503 1503 1503 1502 1502 1502 1502 1502 1502 1501 1501 1500 1500 1499 1498 1497 1497
1464 1465 1466 1467 1467 1468 1469 1469 1470 1471 1471 1472 1473 1474 1475 1476 1477 1478 1479 1480 1481 1482 1482 1483 1484 1486 1487 1488 1489 1490 1491 1492 1494 1495 1496 1496 1497 1498 1499 1500 1500 1501 1501 1501 1501 1501 1502 1502 1502 1502 1502 1502 1501 1501 1501 1501 1501 1501 1501 1501 1500 1500 1499 1499 1498 1497 1496 1496 1495
1463 1464 1465 1466 1466 1466 1467 1468 1468 1469 1470 1471 1471 1472 1474 1475 1476 1477 1478 1479 1479 1480 1481 1482 1483 1484 1485 1486 1488 1489 1490 1491 1492 1494 1495 1496 1496 1497 1498 1499 1499 1500 1500 1500 1500 1500 1500 1501 1501 1501 1501 1500 1500 1500 1500 1500 1500 1499 1499 1499 1498 1498 1497 1497 1496 1496 1495 1494 1493
1462 1462 1463 1464 1465 1465 1466 1466 1467 1468 1468 1469 1470 1471 1472 1473 1474 1475 1476 1477 1478 1479 1480 1481 1482 1483 1484 1486 1487 1488 1489 1490 1491 1493 1494 1495 1495 1496 1497 1497 1498 1498 1499 1499 1499 1499 1499 1499 1499 1499 1499 1499 1499 1499 1499 1498 1498 1498 1497 1497 1496 1496 1495 1495 1494 1494 1493 1492 1491
1460 1461 1462 1462 1463 1463 1464 1465 1465 1466 1467 1468 1469 1470 1471 1472 1473 1474 1475 1476 1477 1478 1479 1480 1481 1482 1483 1485 1486 1487 1488 1490 1491 1491 1492 1493 1494 1495 1496 1496 1497 1497 1497 1498 1498 1498 1498 1498 1498 1498 1498 1498 1497 1497 1497 1497 1496 1496 1496 1495 1495 1494 1493 1493 1492 1491 1491 1490 1489
1459 1460 1460 1461 1461 1462 1463 1463 1464 1465 1466 1466 1467 1468 1469 1471 1471 1472 1474 1475 1475 1476 1477 1479 1480 1481 1482 1484 1485 1486 1487 1489 1490 1491 1491 1492 1493 1494 1495 1495 1496 1496 1496 1496 1496 1496 1496 1496 1496 1496 1496 1496 1496 1496 1496 1495 1495 1494 1494 1493 1493 1492 1491 1491 1490 1489 1488 1488 1487
1458 1458 1459 1460 1460 1461 1461 1462 1463 1463 1464 1465 1466 1467 1468 1469 1470 1471 1472 1473 1474 1475 1476 1478 1479 1480 1481 1483 1484 1486 1487 1488 1489 1490 1491 1491 1492 1493 1493 1494 1494 1495 1495 1495 1495 1495 1495 1495 1495 1495 1495 1494 1494 1494 1493 1493 1493 1492 1492 1491 1491 1490 1489 1488 1488 1487 1486 1485 1485
1457 1457 1458 1459 1459 1460 1460 1461 1461 1462 1463 1464 1465 1466 1466 1468 1469 1470 1471 1472 1473 1474 1476 1477 1478 1480 1481 1482 1484 1485 1486 1487 1488 1489 1489 1490 1491 1491 1492 1492 1493 1493 1494 1494 1494 1494 1494 1494 1494 1494 1493 1492 1492 1491 1491 1491 1490 1490 1489 1489 1488 1488 1487 1486 1486 1485 1484 1483 1482
1456 1456 1457 1457 1458 1458 1459 1460 1460 1461 1462 1463 1463 1464 1465 1466 1467 1469 1470 1471 1472 1473 1475 1476 1477 1479 1480 1481 1483 1484 1485 1486 1487 1487 1488 1489 1490 1490 1491 1491 1491 1492 1492 1493 1493 1493 1493 1493 1493 1492 1492 1491 1490 1489 1489 1488 1488 1487 1487 1486 1486 1486 1485 1484 1483 1482 1482 1481 1480
1455 1455 1456 1456 1457 1457 1458 1458 1459 1460 1461 1461 1462 1463 1464 1465 1466 1467 1469 1470 1471 1472 1473 1475 1476 1478 1479 1481 1482 1483 1484 1485 1486 1486 1487 1488 1489 1489 1490 1490 1490 1491 1491 1492 1492 1492 1492 1492 1491 1491 1490 1489 1488 1487 1487 1486 1486 1485 1485 1484 1484 1483 1483 1482 1481 1481 1480 1479 1478
1454 1454 1455 1455 1456 1456 1457 1457 1458 1458 1459 1460 1461 1462 1463 1464 1465 1466 1467 1468 1470 1471 1473 1474 1476 1477 1479 1480 1481 1482 1483 1484 1485 1486 1486 1487 1487 1488 1488 1489 1489 1490 1490 1491 1491 1491 1491 1490 1490 1489 1488 1488 1487 1486 1485 1485 1484 1483 1482 1482 1481 1481 1480 1480 1479 1478 1477 1477 1476
1453 1454 1454 1455 1455 1455 1456 1456 1457 1457 1458 1459 1460 1461 1462 1463 1464 1465 1466 1467 1469 1471 1472 1474 1475 1477 1478 1479 1480 1481 1482 1483 1484 1484 1485 1486 1486 1487 1487 1488 1488 1489 1489 1489 1489 1489 1489 1489 1488 1487 1487 1486 1485 1484 1484 1483 1482 1481 1481 1480 1479 1479 1478 1477 1476 1476 1475 1475 1474
1452 1453 1453 1454 1454 1454 1455 1455 1456 1456 1457 1458 1459 1460 1461 1462 1463 1464 1465 1467 1468 1470 1471 1473 1474 1476 1477 1478 1479 1480 1481 1482 1483 1483 1484 1485 1485 1486 1486 1487 1487 1488 1488 1488 1488 1487 1487 1487 1486 1486 1485 1484 1483 1483 1482 1481 1480 1479 1478 1477 1477 1476 1476 1475 1474 1474 1473 1472 1472
1451 1452 1452 1453 1453 1454 1454 1454 1455 1456 1456 1457 1458 1459 1460 1461 1462 1463 1464 1466 1467 1469 1471 1472 1473 1475 1476 1477 1478 1479 1480 1481 1481 1482 1483 1483 1484 1485 1485 1486 1486 1486 1486 1486 1486 1486 1486 1485 1485 1484 1483 1482 1482 1481 1480 1479 1478 1477 1476 1475 1474 1474 1473 1472 1472 1471 1471 1470 1469
1451 1451 1451 1452 1452 1453 1453 1453 1454 1455 1456 1456 1457 1458 1459 1460 1461 1462 1463 1465 1466 1468 1470 1471 1472 1474 1475 1476 1477 1478 1479 1480 1481 1481 1481 1482 1483 1483 1484 1484 1485 1485 1485 1485 1484 1484 1484 1484 1483 1482 1482 1481 1480 1479 1478 1477 1476 1475 1474 1473 1472 1471 1470 1470 1469 1468 1467 1467 1466
1450 1450 1451 1451 1451 1452 1452 1453 1453 1454 1455 1456 1456 1457 1458 1460 1461 1461 1463 1464 1466 1467 1469 1471 1472 1473 1474 1476 1476 1477 1478 1479 1479 1480 1480 1481 1481 1482 1482 1483 1483 1483 1483 1483 1483 1482 1482 1482 1481 1481 1480 1479 1478 1477 1476 1475 1473 1472 1471 1470 1469 1468 1467 1467 1466 1466 1465 1464 1464
1449 1449 1450 1450 1451 1451 1451 1452 1453 1453 1454 1455 1456 1457 1458 1459 1460 1461 1462 1464 1466 1467 1469 1470 1471 1473 1474 1475 1476 1476 1477 1478 1478 1479 1479 1480 1480 1480 1481 1481 1481 1481 1481 1481 1481 1481 1481 1480 1480 1479 1478 1477 1476 1475 1474 1473 1471 1470 1469 1468 1467 1466 1465 1464 1463 1463 1462 1461 1461
1448 1448 1449 1449 1450 1450 1451 1451 1452 1453 1454 1454 1455 1456 1457 1458 1460 1461 1462 1463 1465 1466 1468 1470 1471 1472 1473 1474 1475 1475 1476 1476 1477 1477 1478 1478 1478 1478 1479 1479 1479 1479 1479 1479 1479 1479 1479 1478 1478 1477 1477 1476 1475 1473 1472 1471 1469 1468 1466 1465 1464 1463 1462 1461 1461 1460 1460 1459 1458